Terminal Aerodrome Forecast
Issued by NWS

Home | Current Version | Previous Version | Text Only | Print | Product List | Glossary On
Versions: 1 2 3 4 5 6 7 8 9 10 11 12 13 14 15 16 17 18 19 20 21 22 23 24 25 26 27 28 29 30 31 32 33 34 35 36 37 38 39 40 41 42 43 44 45 46 47 48 49 50
000
FTUS44 KHGX 041330 AAA
TAFUTS
TAF AMD
KUTS 041330Z 0414/0512 17005KT P6SM VCSH FEW010 BKN030 OVC050
      TEMPO 0414/0417 4SM -RA BR BKN010
     FM041700 18008KT P6SM BKN022 OVC035
     FM042300 34010G20KT 4SM BR VCSH OVC010
     FM050600 34013G23KT 6SM -RA OVC007=

USA.gov is the U.S. government's official web portal to all federal, state and local government web resources and services.